User: anonymous   Login
Location: Deuil
(48.9767°N, 2.3272°E)
Time: 03:28:18
(UTC+00:00)
Language:

Cosmos 1825 - Orbit

View from above orbital plane
View from above orbital plane
View from above satellite
View from above satellite

Ground track
Ground track

The orbit data is extracted from the following two-line orbital elements,

1 17566U 87024A   22021.59950208  .00002269  00000-0  99970-4 0  9998
2 17566  82.5028  62.2647 0005266 109.6968 250.4836 15.21317241908920
Epoch (UTC): 21 January 2022 14:23:16
Eccentricity: 0.0005266
inclination: 82.5028°
perigee height: 498 km
apogee height: 505 km
right ascension of ascending node: 62.2647°
argument of perigee: 109.6968°
revolutions per day: 15.21317241
mean anomaly at epoch: 250.4836°
orbit number at epoch: 90892

The dashed part of the orbit path shows where the satellite is in the earth's shadow,  

DLR